Location: Goll?ig?dem
(16.6773°N, 80.7332°E)
Time: 20:39:25
(UTC+00:00)

Aureole 1 Rocket - Pass Details

Date: 19 May 2025
Orbit: 373 x 1191 km, 73.9° (Epoch: 21 June)

Event Time Altitude Azimuth Distance (km) Brightness Sun altitude
Rises 14:47:43 0° 340° (NNW) 3,452 7.7 -23.6°
Reaches altitude 10° 14:50:01 10° 337° (NNW) 2,623 7.0 -24.0°
Maximum altitude 14:56:09 62° 258° (WSW) 1,173 4.5 -25.3°
Enters shadow 15:00:17 26° 186° (S) 2,033 5.4 -26.1°
